Regional Weather Roundup
Issued by NWS

Home | Current Version | Previous Version | Graphics & Text | Print | Product List | Glossary On
Versions: 1 2 3 4 5 6 7 8 9 10 11 12 13 14 15 16 17 18 19 20 21 22 23 24 25 26 27 28 29 30 31 32 33 34 35 36 37 38 39 40 41 42 43 44 45 46 47 48 49 50
972
ASUS43 KBIS 281602
RWRND

NORTH DAKOTA REGIONAL WEATHER ROUNDUP
NATIONAL WEATHER SERVICE BISMARCK ND
1100 AM CDT THU JUL 28 2016

NOTE: "FAIR" INDICATES FEW OR NO CLOUDS BELOW 12,000 FEET WITH NO
SIGNIFICANT WEATHER AND/OR OBSTRUCTIONS TO VISIBILITY.


NDZ001>003-009>011-017-281700-
NORTHWEST NORTH DAKOTA

CITY           SKY/WX    TMP DP  RH WIND       PRES   REMARKS
WILLISTON      MOSUNNY   71  58  63 E12       30.17S
MINOT          CLOUDY    71  54  54 N5        30.17S
MINOT AFB      MOSUNNY   69  55  60 NE10      30.16
$$

NDZ018>021-031>035-040>046-281700-
SOUTHWEST NORTH DAKOTA

CITY           SKY/WX    TMP DP  RH WIND       PRES   REMARKS
BISMARCK       CLOUDY    69  58  67 NE6       30.15F
DICKINSON      CLOUDY    60  58  92 E10       30.15R
GARRISON         N/A     65  58  78 VRB6      30.18R
HETTINGER ARPT CLOUDY    67  58  72 SE8       30.15S
$$

NDZ004>008-012>016-024-026-027-054-281700-
NORTHEAST NORTH DAKOTA

CITY           SKY/WX    TMP DP  RH WIND       PRES   REMARKS
GRAND FORKS    MOSUNNY   72  56  57 NE12      30.13R
GRND FRKS AFB  MOSUNNY   71  56  60 NE10      30.14
DEVILS LAKE    PTSUNNY   66  56  70 E7        30.17S
$$

NDZ022-023-025-028>030-036>039-047>053-281700-
SOUTHEAST NORTH DAKOTA

CITY           SKY/WX    TMP DP  RH WIND       PRES   REMARKS
FARGO          PTSUNNY   73  63  70 NW5       30.10R
JAMESTOWN      PTSUNNY   67  60  78 N8        30.12F
$$





USA.gov is the U.S. government's official web portal to all federal, state and local government web resources and services.